FW0878 Weather Reports


Display with metric or nautical units.
time (UTC)temp
F
wind
direction
speed
MPH
gust
MPH
rain 1hr
in
rain 24hr
in
rain mn
in
humidity
%
barometer
mb
20260905052806 64 19 3.0 8.0 0.00 0.26 0.01 55 1004.2
20260905052307 63 205 4.0 8.0 0.00 0.26 0.01 59 1004.1
20260905051806 62 317 3.0 15.0 0.00 0.26 0.01 64 1004.3
20260905050807 65 226 6.0 13.0 0.00 0.26 0.01 47 1003.9
20260905050307 66 312 5.0 10.0 0.00 0.26 0.01 46 1003.5
20260905045806 67 317 5.0 13.0 0.00 0.26 0.01 45 1003.5
20260905044806 67 313 3.0 10.0 0.00 0.26 0.01 43 1003.2
20260905044307 67 319 3.0 12.0 0.00 0.26 0.01 43 1003.1
20260905043807 67 289 5.0 12.0 0.00 0.26 0.01 43 1003.3
20260905043307 67 250 5.0 14.0 0.00 0.26 0.01 44 1003.1
20260905042806 68 268 5.0 9.0 0.00 0.26 0.01 43 1003.2
20260905042307 68 311 4.0 9.0 0.00 0.26 0.01 43 1003.1
20260905041807 67 229 5.0 13.0 0.00 0.26 0.01 43 1003.0
20260905041308 67 204 3.0 15.0 0.00 0.26 0.01 44 1003.1
20260905040806 67 3 6.0 16.0 0.00 0.26 0.01 43 1003.0
20260905035807 67 114 6.0 12.0 0.00 0.26 0.01 44 1003.0
20260905035309 67 202 5.0 14.0 0.00 0.26 0.01 44 1003.2
20260905034806 66 357 7.0 16.0 0.00 0.26 0.01 44 1003.3
20260905034307 66 269 8.0 16.0 0.00 0.26 0.01 45 1003.4
20260905033808 67 248 7.0 14.0 0.00 0.26 0.01 43 1003.2
20260905033306 66 0 6.0 15.0 0.00 0.26 0.01 44 1003.3
20260905032807 66 271 7.0 17.0 0.00 0.26 0.01 45 1003.5
20260905032307 68 270 7.0 17.0 0.00 0.26 0.01 47 1003.6
20260905031806 68 315 7.0 17.0 0.00 0.26 0.01 46 1003.4
20260905031306 68 267 5.0 10.0 0.00 0.26 0.01 51 1003.7
20260905030808 67 248 3.0 10.0 0.00 0.26 0.01 52 1003.6
20260905030306 67 273 4.0 8.0 0.01 0.26 0.01 53 1003.7
20260905025308 64 315 4.0 17.0 0.01 0.26 0.01 60 1003.8
20260905024806 65 291 4.0 10.0 0.01 0.26 0.01 59 1004.0
20260905024307 64 112 3.0 12.0 0.01 0.26 0.01 60 1003.9
20260905023308 64 292 4.0 13.0 0.01 0.26 0.01 60 1004.2
20260905022806 63 270 5.0 13.0 0.01 0.26 0.01 61 1004.1
20260905022307 62 226 2.0 13.0 0.01 0.26 0.01 65 1003.9
20260905021806 61 229 6.0 15.0 0.01 0.26 0.01 66 1004.1
20260905021307 59 312 5.0 14.0 0.01 0.26 0.01 70 1003.9
20260905020807 58 71 4.0 13.0 0.01 0.26 0.01 68 1004.0
20260905020307 58 293 3.0 15.0 0.00 0.25 0.00 69 1004.3
20260905015806 61 314 8.0 23.0 0.00 0.25 0.00 66 1004.4
20260905015307 67 267 10.0 22.0 0.00 0.25 0.00 54 1004.5
20260905014806 69 250 6.0 16.0 0.00 0.25 0.00 48 1003.7
20260905014308 68 250 7.0 13.0 0.00 0.25 0.00 48 1003.8
20260905013808 68 204 6.0 14.0 0.00 0.25 0.00 49 1003.6
20260905013306 68 250 6.0 15.0 0.00 0.25 0.00 50 1003.6
20260905012807 67 250 7.0 16.0 0.00 0.25 0.00 52 1003.4
20260905012306 67 24 6.0 15.0 0.00 0.25 0.00 51 1003.3
20260905011807 67 288 6.0 14.0 0.00 0.25 0.00 53 1003.7
20260905011307 67 314 6.0 16.0 0.00 0.25 0.00 53 1003.6
20260905010807 67 248 5.0 13.0 0.00 0.25 0.00 54 1003.6
20260905010308 66 207 5.0 13.0 0.00 0.25 0.00 55 1003.4
20260905005307 66 269 3.0 12.0 0.00 0.25 0.00 55 1003.6
20260905004308 65 202 6.0 14.0 0.00 0.25 0.00 56 1003.5
20260905003806 65 93 5.0 15.0 0.00 0.25 0.00 58 1003.8
20260905003307 64 314 4.0 12.0 0.00 0.25 0.00 60 1003.6
20260905002806 64 19 6.0 12.0 0.00 0.25 0.00 61 1004.0
20260905002306 64 185 3.0 9.0 0.00 0.25 0.00 63 1004.0
20260905001806 64 269 4.0 8.0 0.00 0.25 0.00 65 1004.1
20260905001306 64 315 2.0 7.0 0.00 0.25 0.00 67 1004.1
20260904235806 63 316 2.0 8.0 0.00 0.25 0.00 70 1004.0
20260904235308 63 89 5.0 8.0 0.00 0.25 0.00 70 1004.0
20260904234306 62 317 1.0 8.0 0.00 0.25 0.00 75 1003.9
20260904233806 61 114 3.0 6.0 0.00 0.25 0.00 76 1004.0
20260904233307 61 356 2.0 6.0 0.00 0.25 0.00 78 1004.1
20260904232307 60 358 2.0 6.0 0.00 0.25 0.00 79 1004.1
20260904231806 60 272 2.0 5.0 0.00 0.25 0.00 79 1004.0
20260904231306 60 0 2.0 8.0 0.00 0.25 0.00 79 1004.0
20260904230806 60 315 5.0 8.0 0.00 0.25 0.00 79 1004.1
20260904230307 59 294 1.0 10.0 0.00 0.25 0.00 81 1004.3
20260904225807 59 338 2.0 7.0 0.00 0.25 0.25 82 1004.2
20260904225307 59 317 3.0 7.0 0.00 0.25 0.25 82 1004.4
20260904224806 58 85 3.0 10.0 0.00 0.25 0.25 83 1004.4
20260904224307 58 339 3.0 10.0 0.00 0.25 0.25 84 1004.5
20260904223806 58 338 3.0 5.0 0.00 0.25 0.25 84 1004.2
20260904223308 58 338 1.0 8.0 0.00 0.25 0.25 84 1004.3
20260904222806 58 21 2.0 10.0 0.00 0.25 0.25 84 1004.7
20260904222308 58 0 4.0 10.0 0.00 0.25 0.25 83 1004.4
20260904221807 58 294 3.0 12.0 0.00 0.25 0.25 84 1004.3
20260904221306 57 293 4.0 9.0 0.00 0.25 0.25 84 1004.3
20260904220807 57 339 5.0 10.0 0.00 0.25 0.25 84 1004.6
20260904220306 57 340 3.0 9.0 0.00 0.25 0.25 85 1004.4
20260904215307 57 358 5.0 8.0 0.00 0.25 0.25 85 1004.7
20260904214807 57 295 3.0 8.0 0.01 0.25 0.25 86 1004.9
20260904213807 57 274 2.0 8.0 0.02 0.25 0.25 86 1004.3
20260904213307 57 0 3.0 9.0 0.03 0.25 0.25 86 1004.4
20260904212807 57 293 3.0 10.0 0.03 0.25 0.25 86 1004.1
20260904212306 57 338 3.0 7.0 0.03 0.25 0.25 86 1004.0
20260904211807 57 21 3.0 12.0 0.03 0.25 0.25 86 1004.0
20260904211306 56 317 5.0 12.0 0.03 0.25 0.25 87 1003.9
20260904210806 56 43 3.0 12.0 0.04 0.25 0.25 87 1003.8
20260904205806 57 320 5.0 10.0 0.04 0.25 0.25 87 1004.1
20260904205306 57 88 6.0 15.0 0.04 0.25 0.25 87 1004.1
20260904204806 57 273 7.0 13.0 0.04 0.24 0.24 86 1004.5
20260904204307 57 19 6.0 12.0 0.03 0.23 0.23 86 1004.7
20260904203806 57 341 6.0 13.0 0.03 0.23 0.23 86 1005.1
20260904203307 57 46 5.0 13.0 0.02 0.22 0.22 86 1005.6
20260904202807 57 292 3.0 12.0 0.02 0.22 0.22 86 1005.4
20260904202307 57 271 5.0 12.0 0.02 0.22 0.22 86 1005.7
20260904201806 57 344 4.0 12.0 0.02 0.22 0.22 86 1005.7
20260904200807 58 288 3.0 9.0 0.01 0.21 0.21 85 1005.9
20260904200306 57 0 3.0 10.0 0.01 0.21 0.21 85 1005.9
20260904195307 57 333 3.0 9.0 0.01 0.21 0.21 85 1005.7
20260904194806 57 42 3.0 12.0 0.00 0.20 0.20 84 1005.8
20260904194306 57 340 5.0 10.0 0.00 0.20 0.20 84 1005.5
20260904193807 57 2 3.0 8.0 0.00 0.20 0.20 84 1005.7
20260904193307 57 250 4.0 8.0 0.00 0.20 0.20 85 1005.5
20260904192806 57 90 3.0 10.0 0.00 0.20 0.20 85 1005.4
20260904192306 57 316 3.0 7.0 0.00 0.20 0.20 85 1005.5
20260904191806 57 293 2.0 8.0 0.00 0.20 0.20 86 1005.8
20260904191307 57 341 4.0 8.0 0.00 0.20 0.20 86 1005.9
20260904190807 57 21 3.0 7.0 0.01 0.20 0.20 86 1006.2
20260904190307 57 248 2.0 7.0 0.03 0.20 0.20 85 1006.5
20260904185808 57 358 2.0 10.0 0.04 0.20 0.20 85 1006.6
20260904185306 57 66 3.0 8.0 0.06 0.20 0.20 85 1006.3
20260904184807 57 226 3.0 13.0 0.06 0.20 0.20 85 1006.3
20260904184307 57 43 3.0 9.0 0.06 0.20 0.20 86 1006.2
20260904183807 57 22 6.0 8.0 0.06 0.20 0.20 86 1006.4
20260904183307 57 317 3.0 9.0 0.06 0.20 0.20 86 1006.5
20260904182807 57 20 5.0 13.0 0.06 0.20 0.20 87 1006.3
20260904182306 56 272 5.0 15.0 0.06 0.20 0.20 87 1006.4
20260904181306 57 226 5.0 14.0 0.06 0.20 0.20 88 1006.5
20260904175807 57 315 3.0 12.0 0.03 0.16 0.16 86 1006.6
20260904175306 57 339 5.0 12.0 0.02 0.14 0.14 85 1006.6
20260904174806 57 338 4.0 9.0 0.03 0.14 0.14 86 1006.5
20260904174307 57 316 4.0 13.0 0.03 0.14 0.14 86 1005.9
20260904173806 57 0 6.0 13.0 0.03 0.14 0.14 86 1006.0
20260904173307 57 20 8.0 14.0 0.03 0.14 0.14 86 1005.7
20260904172808 57 2 6.0 14.0 0.03 0.14 0.14 86 1005.6
20260904172306 57 341 6.0 13.0 0.03 0.14 0.14 86 1005.6
20260904171808 57 316 5.0 14.0 0.03 0.14 0.14 86 1006.0
20260904171306 57 315 6.0 16.0 0.03 0.14 0.14 87 1006.4
20260904170806 57 21 6.0 12.0 0.04 0.14 0.14 87 1006.4
20260904170306 57 182 5.0 15.0 0.04 0.14 0.14 87 1006.5
20260904165806 57 68 6.0 14.0 0.03 0.13 0.13 87 1006.8
20260904165307 57 267 6.0 14.0 0.03 0.12 0.12 86 1007.2
20260904164307 58 225 6.0 16.0 0.02 0.11 0.11 85 1007.7
20260904163806 57 294 6.0 14.0 0.02 0.11 0.11 85 1007.6
20260904163307 57 294 5.0 14.0 0.03 0.11 0.11 86 1007.9
20260904162807 57 314 5.0 13.0 0.04 0.11 0.11 86 1007.4
20260904162306 57 0 7.0 12.0 0.05 0.11 0.11 86 1007.1
20260904161806 57 1 5.0 10.0 0.06 0.11 0.11 86 1007.4
20260904161306 57 339 5.0 13.0 0.06 0.11 0.11 86 1007.7
20260904160807 57 338 6.0 14.0 0.05 0.10 0.10 85 1007.9
20260904160307 57 271 7.0 14.0 0.05 0.10 0.10 85 1008.1
20260904154806 57 229 5.0 17.0 0.04 0.09 0.09 84 1008.4
20260904154307 57 341 6.0 13.0 0.04 0.09 0.09 84 1008.4
20260904153806 58 21 5.0 14.0 0.04 0.09 0.09 84 1008.6
20260904153307 58 1 6.0 14.0 0.03 0.09 0.09 83 1008.9
20260904152806 58 250 6.0 15.0 0.02 0.08 0.08 82 1009.1
20260904152307 58 65 4.0 10.0 0.01 0.07 0.07 82 1009.5
20260904151806 58 340 4.0 10.0 0.00 0.06 0.06 81 1009.4
20260904150308 58 292 6.0 14.0 0.00 0.06 0.06 81 1009.6
20260904145307 58 291 4.0 14.0 0.01 0.06 0.06 80 1009.6
20260904144807 58 338 4.0 13.0 0.02 0.06 0.06 80 1009.4
20260904143806 58 269 6.0 14.0 0.03 0.06 0.06 80 1009.4
20260904143307 58 0 6.0 12.0 0.03 0.06 0.06 82 1009.6
20260904142807 58 0 4.0 12.0 0.03 0.06 0.06 83 1009.8
20260904142309 57 315 5.0 9.0 0.03 0.06 0.06 83 1009.8
20260904141307 57 338 4.0 13.0 0.03 0.06 0.06 85 1010.0
20260904140806 57 318 3.0 10.0 0.03 0.06 0.06 85 1009.9
20260904140306 58 315 3.0 9.0 0.03 0.06 0.06 84 1010.1
20260904135807 58 277 2.0 7.0 0.02 0.05 0.05 83 1010.3
20260904135307 58 19 2.0 6.0 0.02 0.05 0.05 82 1010.3
20260904134807 59 316 3.0 9.0 0.01 0.04 0.04 80 1010.1
20260904134306 58 317 3.0 8.0 0.00 0.03 0.03 79 1010.5
20260904133806 58 274 3.0 9.0 0.00 0.03 0.03 79 1010.7
20260904133306 58 20 3.0 9.0 0.00 0.03 0.03 79 1010.9
20260904132807 59 159 3.0 9.0 0.00 0.03 0.03 78 1010.6
20260904132308 59 312 4.0 8.0 0.00 0.03 0.03 78 1010.8
20260904131807 59 0 5.0 13.0 0.00 0.03 0.03 78 1010.7
20260904131306 59 249 4.0 12.0 0.00 0.03 0.03 78 1010.6
20260904130806 59 43 5.0 15.0 0.00 0.03 0.03 78 1010.9
20260904130307 58 317 5.0 12.0 0.00 0.03 0.03 78 1011.1
20260904125306 58 41 5.0 9.0 0.00 0.03 0.03 79 1011.3
20260904124806 58 1 4.0 7.0 0.00 0.03 0.03 79 1011.3
20260904123307 58 67 5.0 10.0 0.01 0.03 0.03 80 1011.4
20260904122809 58 43 5.0 10.0 0.01 0.03 0.03 80 1011.5
20260904122307 58 337 6.0 10.0 0.01 0.03 0.03 80 1011.7
20260904121806 58 3 6.0 13.0 0.01 0.03 0.03 80 1011.9
20260904120806 58 2 1.0 6.0 0.01 0.03 0.03 80 1011.9
20260904120306 57 316 3.0 8.0 0.01 0.03 0.03 80 1012.0
20260904115307 57 338 5.0 9.0 0.01 0.03 0.03 81 1011.7
20260904114806 57 317 3.0 7.0 0.01 0.03 0.03 81 1011.8
20260904113806 58 336 5.0 13.0 0.00 0.02 0.02 77 1012.6
20260904113307 58 44 3.0 8.0 0.00 0.02 0.02 75 1012.8
20260904112807 59 335 3.0 8.0 0.00 0.02 0.02 73 1012.7
20260904112306 59 317 4.0 9.0 0.00 0.02 0.02 72 1013.0
20260904111806 58 25 5.0 10.0 0.01 0.02 0.02 72 1012.9
20260904111307 58 341 3.0 8.0 0.01 0.02 0.02 73 1013.1
20260904110807 58 337 2.0 9.0 0.01 0.02 0.02 73 1013.0
20260904110307 58 357 5.0 12.0 0.02 0.02 0.02 73 1013.0
20260904105808 58 0 6.0 10.0 0.02 0.02 0.02 73 1013.2
20260904105307 58 41 5.0 9.0 0.02 0.02 0.02 74 1013.2
20260904104307 58 0 3.0 12.0 0.02 0.02 0.02 75 1013.1
20260904103807 57 42 5.0 10.0 0.02 0.02 0.02 76 1013.1
20260904102807 57 314 3.0 12.0 0.02 0.02 0.02 76 1013.2
20260904102307 57 43 3.0 6.0 0.02 0.02 0.02 78 1013.2
20260904101806 57 297 3.0 8.0 0.01 0.01 0.01 76 1013.5
20260904101309 58 272 3.0 8.0 0.01 0.01 0.01 75 1013.4
20260904100307 58 110 5.0 9.0 0.00 0.00 0.00 72 1013.3
20260904095808 58 0 5.0 7.0 0.00 0.00 0.00 74 1013.0
20260904095306 58 314 3.0 7.0 0.00 0.00 0.00 75 1013.3
20260904094806 58 23 1.0 6.0 0.00 0.00 0.00 74 1013.1
20260904094307 58 4 3.0 9.0 0.00 0.00 0.00 73 1013.3
20260904093307 59 337 3.0 8.0 0.00 0.00 0.00 69 1013.6
20260904092807 59 339 3.0 7.0 0.00 0.00 0.00 68 1013.6
20260904092307 58 358 2.0 6.0 0.00 0.00 0.00 68 1013.6
20260904091806 58 16 2.0 7.0 0.00 0.00 0.00 68 1013.5
20260904091306 58 22 3.0 7.0 0.00 0.00 0.00 68 1013.5
20260904090807 58 0 2.0 5.0 0.00 0.00 0.00 67 1013.7
20260904090307 58 315 3.0 6.0 0.00 0.00 0.00 67 1013.5
20260904085807 58 19 1.0 5.0 0.00 0.00 0.00 67 1013.6
20260904085307 58 339 3.0 7.0 0.00 0.00 0.00 67 1013.5
20260904084807 58 0 3.0 7.0 0.00 0.00 0.00 66 1013.5
20260904084307 58 22 3.0 6.0 0.00 0.00 0.00 66 1013.7
20260904083807 58 350 2.0 7.0 0.00 0.00 0.00 66 1013.8
20260904083307 58 318 3.0 7.0 0.00 0.00 0.00 66 1013.5
20260904082807 58 356 2.0 6.0 0.00 0.00 0.00 66 1013.4
20260904082307 58 23 3.0 6.0 0.00 0.00 0.00 65 1013.8
20260904081807 58 315 1.0 7.0 0.00 0.00 0.00 65 1013.6
20260904080807 59 1 2.0 7.0 0.00 0.00 0.00 64 1013.8
20260904080307 59 65 2.0 6.0 0.00 0.00 0.00 64 1013.7
20260904075307 60 19 3.0 6.0 0.00 0.00 0.00 63 1014.0
20260904074307 60 21 3.0 6.0 0.00 0.00 0.00 62 1014.2
20260904073806 60 276 1.0 7.0 0.00 0.00 0.00 62 1014.1
20260904073306 60 358 3.0 7.0 0.00 0.00 0.00 61 1014.2
20260904072807 60 317 3.0 7.0 0.00 0.00 0.00 61 1014.4
20260904072308 60 21 3.0 6.0 0.00 0.00 0.00 60 1014.3
20260904071806 61 359 3.0 7.0 0.00 0.00 0.00 60 1014.4
20260904071306 61 357 3.0 9.0 0.00 0.00 0.00 60 1014.3
20260904070806 61 1 5.0 10.0 0.00 0.00 0.00 59 1014.3
20260904070307 61 291 5.0 10.0 0.00 0.00 0.00 59 1014.4
20260904065806 61 116 2.0 9.0 0.00 0.00 0.00 60 1014.6
20260904065307 61 318 3.0 8.0 0.00 0.00 0.00 59 1014.6
20260904064806 61 339 3.0 9.0 0.00 0.00 0.00 58 1014.6
20260904064308 61 315 3.0 12.0 0.00 0.00 0.00 57 1014.6
20260904063806 61 269 5.0 13.0 0.00 0.00 0.00 57 1014.8
20260904063307 62 336 4.0 10.0 0.00 0.00 0.00 57 1014.9
20260904062807 62 314 5.0 12.0 0.00 0.00 0.00 56 1014.8
20260904061807 62 290 2.0 7.0 0.00 0.00 0.00 56 1014.8
20260904061307 63 290 4.0 8.0 0.00 0.00 0.00 56 1015.0
20260904060807 63 313 4.0 9.0 0.00 0.00 0.00 55 1015.0
20260904060306 63 179 3.0 8.0 0.00 0.00 0.00 55 1015.0
20260904055808 64 337 3.0 7.0 0.00 0.00 0.00 55 1015.1
20260904055307 64 290 2.0 7.0 0.00 0.00 0.00 54 1015.0
20260904054806 64 274 3.0 7.0 0.00 0.00 0.00 54 1015.1
20260904054307 64 293 2.0 6.0 0.00 0.00 0.00 54 1015.5
20260904053806 64 269 2.0 8.0 0.00 0.00 0.00 53 1015.2